TimeCDT,TemperatureF,Dew PointF,Humidity,Sea Level PressureIn,VisibilityMPH,Wind Direction,Wind SpeedMPH,Gust SpeedMPH,PrecipitationIn,Events,Conditions,WindDirDegrees,DateUTC
12:56 AM,60.1,57.0,90,30.16,9.0,North,4.6,-,N/A,,Clear,350,2012-10-11 05:56:00
2:56 AM,57.9,55.0,90,30.15,7.0,Calm,Calm,-,N/A,,Scattered Clouds,0,2012-10-11 07:56:00
3:56 AM,57.9,55.9,93,30.16,6.0,NNW,3.5,-,N/A,,Mostly Cloudy,340,2012-10-11 08:56:00
4:56 AM,57.9,55.9,93,30.18,6.0,North,4.6,-,N/A,,Partly Cloudy,350,2012-10-11 09:56:00
5:56 AM,59.0,57.0,93,30.19,6.0,North,3.5,-,N/A,,Partly Cloudy,10,2012-10-11 10:56:00
6:56 AM,57.9,55.9,93,30.21,4.0,Calm,Calm,-,N/A,,Clear,0,2012-10-11 11:56:00
7:56 AM,61.0,57.9,90,30.22,6.0,NE,3.5,-,N/A,,Clear,40,2012-10-11 12:56:00
8:56 AM,66.0,59.0,78,30.24,10.0,NE,5.8,-,N/A,,Clear,40,2012-10-11 13:56:00
9:56 AM,71.1,60.1,68,30.25,10.0,Calm,Calm,-,N/A,,Clear,0,2012-10-11 14:56:00
10:56 AM,75.0,60.1,60,30.25,10.0,East,3.5,-,N/A,,Clear,90,2012-10-11 15:56:00
11:56 AM,77.0,59.0,54,30.24,10.0,Calm,Calm,-,N/A,,Clear,0,2012-10-11 16:56:00
12:56 PM,79.0,57.9,48,30.21,10.0,NNW,5.8,-,N/A,,Clear,330,2012-10-11 17:56:00
1:56 PM,81.0,59.0,47,30.19,10.0,Variable,3.5,-,N/A,,Clear,0,2012-10-11 18:56:00
2:56 PM,82.0,59.0,45,30.18,10.0,Calm,Calm,-,N/A,,Clear,0,2012-10-11 19:56:00
3:56 PM,82.0,57.9,44,30.18,10.0,Calm,Calm,-,N/A,,Clear,0,2012-10-11 20:56:00
4:56 PM,82.0,59.0,45,30.18,10.0,North,4.6,-,N/A,,Clear,360,2012-10-11 21:56:00
5:56 PM,77.0,59.0,54,30.18,10.0,Calm,Calm,-,N/A,,Clear,0,2012-10-11 22:56:00
6:56 PM,70.0,62.1,76,30.19,10.0,North,3.5,-,N/A,,Clear,350,2012-10-11 23:56:00
7:56 PM,66.9,62.1,84,30.21,10.0,North,3.5,-,N/A,,Clear,350,2012-10-12 00:56:00
8:56 PM,64.9,61.0,87,30.22,10.0,North,3.5,-,N/A,,Clear,10,2012-10-12 01:56:00
9:56 PM,66.0,59.0,78,30.23,10.0,North,3.5,-,N/A,,Clear,350,2012-10-12 02:56:00
10:56 PM,63.0,59.0,87,30.22,10.0,Calm,Calm,-,N/A,,Clear,0,2012-10-12 03:56:00
11:56 PM,60.1,57.0,90,30.22,10.0,Calm,Calm,-,N/A,,Clear,0,2012-10-12 04:56:00